sat.trackr.live / text

‹ back to catalog

STARLINK-33941

NORAD 63765 · 2025-089Q

PAYLOAD ACTIVE UNKNOWN

§ Identity

Operator
Country
US
Launch date
2025-04-29
Launch site
AFETR
Launch vehicle
Mass (kg)
RCS (m²)

Purposes: comms

External: N2YO · Heavens-Above · Gunter

§ Orbital elements

Epoch: 2026-05-24T21:59:33.196416Z

Period
94.27 min
Inclination
43.0030°
Eccentricity
0.0001590
Mean motion
15.27599309 rev/d
Perigee alt
481.9 km
Apogee alt
484.1 km
Semi-major
6,861.1 km
B*
6.0818e-4
RAAN
334.9031°
Arg perigee
263.7388°
Mean anomaly
96.3283°
Rev number
6,060

§ Raw data

STARLINK-339411 63765U 25089Q   26144.91635644  .00016521  00000+0  60818-3 0  99962 63765  43.0030 334.9031 0001590 263.7388  96.3283 15.27599309 60607

JSON: /api/v1/satellites/63765 · /tle

For live sub-satellite position, see the globe view (requires WebGL).

§ Visibility from observer

Set your observer location to see the next 7 days of passes ≥ 10°. The values pass through the URL so the page stays shareable.

No JS? Fill the form by hand. The geolocation button needs JavaScript.